Home > Weather > Mosjøen > Past weeks

Flag for Norway Past Weather in Mosjøen, Norway — Yesterday and Last 2 Weeks

Now
53 °F

Cool.


Feels Like: 53 °F
Forecast: 55 / 60 °F
Wind: 2 mph from Southwest

Location: Mosjoen Kjaerstad

Current Time: Jul 30, 2016 at 7:31:15 AM

Latest Report: Jul 30, 2016 at 6:00 AM


Visibility: N/A

Pressure: 29.68 "Hg

Humidity: 92%

Dew Point: 51 °F

Location of MosjøenLocation

Past Weather in Mosjøen — Graph

°F

Mosjøen Temperature Yesterday

Maximum temperature yesterday: 70 °F (at 4:00 PM)
Minimum temperature yesterday: 54 °F (at 6:00 AM)
Average temperature yesterday: 63 °F

High & Low Weather Summary for the Past Weeks

 TemperatureHumidityPressure
High83 °F (Jul 21, 5:00 PM)95% (Jul 29, 2:00 AM)30.15 "Hg (Jul 29, 2:00 AM)
Low42 °F (Jul 20, 5:00 AM)28% (Jul 21, 5:00 PM)29.61 "Hg (Jul 17, 9:00 AM)
Average60 °F72%29.92 "Hg
* Reported Jul 15 6:00 AM — Jul 30 6:00 AM, Mosjøen, Weather by CustomWeather, © 2016

Note: Actual official high and low records may vary slightly from our data, if they occured in-between our weather recording intervals... More about our weather records

Advertising

Mosjøen Weather History for the Previous 24 Hours

Scroll right to see more
 ConditionsComfort  
Time TempWeatherWind HumidityBarometerVisibility
6:00 AM
Sat, Jul 30
53 °FCool.2 mph92%29.68 "HgN/A
5:00 AM52 °FCool.1 mph92%29.69 "HgN/A
4:00 AM53 °FCool.1 mph92%29.69 "HgN/A
3:00 AM52 °FCool.1 mph93%29.70 "HgN/A
2:00 AM54 °FCool.1 mph91%29.70 "HgN/A
1:00 AM54 °FCool.2 mph91%29.70 "HgN/A
12:00 AM55 °FCool.1 mph89%29.71 "HgN/A
11:00 PM
Fri, Jul 29
59 °FCool.1 mph80%29.72 "HgN/A
10:00 PM62 °FCool.1 mph68%29.70 "HgN/A
9:00 PM65 °FMild.2 mph59%29.70 "HgN/A
8:00 PM67 °FMild.2 mph55%29.69 "HgN/A
7:00 PM69 °FMild.5 mph49%29.70 "HgN/A
6:00 PM69 °FMild.5 mph47%29.71 "HgN/A
5:00 PM70 °FMild.5 mph45%29.72 "HgN/A
4:00 PM70 °FMild.3 mph47%29.73 "HgN/A
3:00 PM69 °FMild.3 mph43%29.74 "HgN/A
2:00 PM68 °FMild.2 mph47%29.75 "HgN/A
1:00 PM67 °FMild.2 mph53%29.76 "HgN/A
12:00 PM67 °FMild.1 mph53%29.77 "HgN/A
11:00 AM65 °FMild.2 mph57%29.78 "HgN/A
10:00 AM64 °FMild.1 mph59%29.78 "HgN/A
9:00 AM61 °FCool.1 mph78%29.79 "HgN/A
8:00 AM56 °FCool.1 mph89%29.79 "HgN/A
7:00 AM55 °FCool.1 mph92%29.79 "HgN/A
Weather by CustomWeather, © 2016

See weather overviewHow to use our weather pages